Weather in Sosnovka

Russia / Kursk Oblast     51°26′35″N   38°10′29″E
temp.,
°C
wind,
m/s
gust,
m/s
humid.,
%
clouds,
%
prec.,
mm/h
press.,
hPa
HPBL,
m
2 march, tue
tue200:00−1w6108489 0.0 1026704
03:00−1wsw7138695 0.0 1024589
06:00−1wsw81488100 0.0 1020741
09:000w81488100 0.0 1018676
12:00+1w71394100 0.0 1016714
15:00+1w71293100 0.1 1014585
18:00+1wnw61197100 0.3 1012502
21:000nw5998100 1.7 1012390
3 march, wed
wed300:000n51192100 2.4 1013610
03:00−2nnw5129076 2.4 1015451
06:00−2nnw5128991 0.0 1016603
09:00−3nnw8138280 0.1 10181099
12:00−2nnw8117343 0.0 10191132
15:00−1nw7107631 0.1 1020947
18:00−2wnw410838 0.0 1020350
21:00−2w512845 0.0 1021418
4 march, thu
thu400:00−3w499271 0.0 1020300
03:00−3wsw4109344 0.0 1019284
06:00−3wsw5119377 0.0 1018323
09:00−1wsw6138540 0.0 1016499
12:00+2wsw813690 0.0 1013761
15:00+4sw915590 0.0 1011821
18:00+2sw817710 0.0 1008672
21:00+2sw718804 0.0 1007608
5 march, fri
fri500:00+3wsw71587100 0.0 1006549
03:00+2wsw61393100 0.0 1006428
06:00+1wsw51193100 0.1 1007437
09:00+2wsw5119299 0.1 1007591
12:00+3wsw4792100 0.0 1007507
15:00+3sw61298100 1.9 1006546
18:00+3sw71597100 4.0 1004676
21:00+2w4998100 7.4 1004322
6 march, sat
sat600:00+1wnw5997100 0.1 1005487
03:00−2nnw61087100 0.2 1008624
06:00−3nnw6979100 0.0 1010753
09:00−3nnw687487 0.1 1013757
12:00−2nw675511 0.0 10141086
15:00−2nw57516 0.0 10141384
18:00−3nnw345828 0.0 1015759
21:00−3nnw346454 0.0 1016865